TimeCST,TemperatureF,Dew PointF,Humidity,Sea Level PressureIn,VisibilityMPH,Wind Direction,Wind SpeedMPH,Gust SpeedMPH,PrecipitationIn,Events,Conditions,WindDirDegrees,DateUTC
12:53 AM,64.0,5.0,10,29.70,10.0,West,16.1,-,N/A,,Clear,270,2013-03-04 06:53:00
1:53 AM,64.0,7.0,11,29.69,10.0,SW,8.1,-,N/A,,Clear,230,2013-03-04 07:53:00
2:53 AM,57.9,9.0,14,29.69,10.0,WSW,8.1,-,N/A,,Clear,240,2013-03-04 08:53:00
3:53 AM,60.1,12.0,15,29.67,10.0,WSW,6.9,-,N/A,,Clear,250,2013-03-04 09:53:00
4:53 AM,55.9,12.0,18,29.69,10.0,West,5.8,-,N/A,,Clear,280,2013-03-04 10:53:00
5:53 AM,51.1,10.9,20,29.72,10.0,West,8.1,-,N/A,,Clear,280,2013-03-04 11:53:00
6:53 AM,59.0,10.0,14,29.73,10.0,WSW,12.7,-,N/A,,Clear,250,2013-03-04 12:53:00
7:53 AM,57.0,10.9,16,29.75,10.0,WSW,10.4,-,N/A,,Clear,240,2013-03-04 13:53:00
8:53 AM,62.1,12.0,14,29.76,10.0,WSW,10.4,-,N/A,,Clear,240,2013-03-04 14:53:00
9:53 AM,66.9,17.1,15,29.75,10.0,WSW,10.4,-,N/A,,Clear,250,2013-03-04 15:53:00
10:53 AM,73.9,14.0,10,29.73,10.0,WSW,17.3,29.9,N/A,,Clear,240,2013-03-04 16:53:00
11:53 AM,78.1,9.0,7,29.72,10.0,WSW,19.6,24.2,N/A,,Clear,240,2013-03-04 17:53:00
12:53 PM,81.0,14.0,8,29.66,10.0,West,32.2,43.7,N/A,,Clear,260,2013-03-04 18:53:00
1:53 PM,82.0,9.0,6,29.63,10.0,WSW,24.2,35.7,N/A,,Clear,250,2013-03-04 19:53:00
2:53 PM,82.9,9.0,6,29.61,10.0,WSW,24.2,31.1,N/A,,Clear,240,2013-03-04 20:53:00
3:53 PM,84.0,6.1,5,29.60,10.0,West,25.3,35.7,N/A,,Clear,270,2013-03-04 21:53:00
4:53 PM,82.9,6.1,5,29.59,10.0,West,19.6,29.9,N/A,,Clear,280,2013-03-04 22:53:00
5:53 PM,82.9,19.0,9,29.59,6.0,West,28.8,36.8,N/A,,Haze,280,2013-03-04 23:53:00
6:53 PM,80.1,24.1,13,29.60,4.0,West,25.3,34.5,N/A,,Haze,270,2013-03-05 00:53:00
7:53 PM,77.0,27.0,16,29.65,-9999.0,West,13.8,-,N/A,,Overcast,280,2013-03-05 01:53:00
8:53 PM,73.0,21.9,15,29.70,-9999.0,WNW,11.5,-,N/A,,Overcast,290,2013-03-05 02:53:00
9:53 PM,71.1,18.0,13,29.75,-9999.0,NW,16.1,-,N/A,,Scattered Clouds,320,2013-03-05 03:53:00
10:53 PM,69.1,19.9,15,29.80,-9999.0,NNW,13.8,-,N/A,,Partly Cloudy,330,2013-03-05 04:53:00
11:53 PM,66.0,21.0,18,29.84,-9999.0,NNW,12.7,-,N/A,,Partly Cloudy,330,2013-03-05 05:53:00